Home > Weather > Colchester County > Past weeks

Flag for Canada Weather for the Past 2 Weeks in Colchester County, Nova Scotia, Canada

Now
28 °F

Clear.


Feels Like: 20 °F
Forecast: 23 / 47 °F
Wind: 8 mph from Northwest

Location: Halifax International Airport

Current Time: Apr 29, 2016 at 5:07:49 AM

Latest Report: Apr 29, 2016 at 4:00 AM


Visibility: 15 mi

Pressure: 30.12 "Hg

Humidity: 59%

Dew Point: 16 °F

Location of Colchester CountyLocation

Historic Weather in Colchester County — Graph

°F

Colchester County Temperature Yesterday

Maximum temperature yesterday: 39 °F (at 3:00 PM)
Minimum temperature yesterday: 32 °F (at 6:00 AM)
Average temperature yesterday: 35 °F

High & Low Weather Summary for the Past Weeks

 TemperatureHumidityPressure
High68 °F (Apr 22, 4:00 PM)100% (Apr 14, 3:00 AM)30.48 "Hg (Apr 14, 3:00 AM)
Low27 °F (Apr 19, 2:00 AM)26% (Apr 22, 6:00 PM)29.67 "Hg (Apr 21, 5:00 PM)
Average39 °F71%30.01 "Hg
* Reported Apr 14 3:00 AM — Apr 29 3:00 AM, Colchester County, Weather by CustomWeather, © 2016

Note: Actual official high and low records may vary slightly from our data, if they occured in-between our weather recording intervals... More about our weather records

Advertising

Colchester County Weather History for the Previous 24 Hours

Scroll right to see more
 ConditionsComfort  
Time TempWeatherWind HumidityBarometerVisibility
3:00 AM
Fri, Apr 29
28 °FClear.7 mph59%30.12 "Hg15 mi
2:00 AM28 °FPassing clouds.7 mph59%30.12 "Hg15 mi
1:00 AM28 °FPassing clouds.6 mph59%30.12 "Hg15 mi
12:00 AM30 °FPassing clouds.6 mph55%30.12 "Hg15 mi
11:00 PM
Thu, Apr 28
32 °FPassing clouds.12 mph47%30.09 "Hg15 mi
10:00 PM32 °FPassing clouds.9 mph47%30.08 "Hg15 mi
9:00 PM34 °FPassing clouds.8 mph41%30.06 "Hg15 mi
8:00 PM36 °FPassing clouds.15 mph38%30.03 "Hg15 mi
7:00 PM37 °FPassing clouds.21 mph33%30.00 "Hg15 mi
6:00 PM39 °FPassing clouds.18 mph33%29.98 "Hg15 mi
5:00 PM39 °FPassing clouds.18 mph30%29.96 "Hg15 mi
4:00 PM39 °FScattered clouds.20 mph33%29.94 "Hg15 mi
3:00 PM39 °FScattered clouds.21 mph33%29.94 "Hg15 mi
2:00 PM37 °FPartly sunny.18 mph41%29.93 "Hg15 mi
1:50 PM36 °FPartly sunny.17 mph48%29.93 "Hg15 mi
1:00 PM36 °FOvercast.23 mph48%29.91 "Hg15 mi
12:00 PM34 °FPartly sunny.18 mph60%29.90 "Hg15 mi
11:00 AM34 °FSnow flurries. Overcast.21 mph75%29.88 "Hg10 mi
10:00 AM34 °FScattered clouds.20 mph70%29.86 "Hg15 mi
9:00 AM36 °FScattered showers. Partly sunny.20 mph75%29.84 "Hg15 mi
8:00 AM34 °FPartly sunny.14 mph81%29.83 "Hg15 mi
7:00 AM32 °FPassing clouds.13 mph87%29.80 "Hg15 mi
6:00 AM32 °FPassing clouds.14 mph87%29.78 "Hg15 mi
5:00 AM34 °FPassing clouds.12 mph87%29.77 "Hg15 mi
Weather by CustomWeather, © 2016

See weather overviewHow to use our weather pages